Regional Weather Roundup
Issued by NWS

Home | Current Version | Previous Version | Text Only | Print | Product List | Glossary Off
Versions: 1 2 3 4 5 6 7 8 9 10 11 12 13 14 15 16 17 18 19 20 21 22 23 24 25 26 27 28 29 30 31 32 33 34 35 36 37 38 39 40 41 42 43 44 45 46 47 48 49 50

000
ASUS43 KLSX 182007
RWRMO

WEATHER SUMMARY FOR MISSOURI
NATIONAL WEATHER SERVICE SPRINGFIELD MO
300 PM CDT SAT APR 18 2015

NOTE: "FAIR" INDICATES FEW OR NO CLOUDS BELOW 12,000 FEET WITH NO
       SIGNIFICANT WEATHER AND/OR OBSTRUCTIONS TO VISIBILITY.
       CURRENT SKY AND/OR WEATHER CONDITIONS ARE NOT AVAILABLE FOR
       CHILLICOTHE AND FARMINGTON.

MOZ001>031-035>038-043-044-053-054-182100-
...NORTHERN AND WESTERN MISSOURI...

CITY           SKY/WX    TMP DP  RH WIND       PRES   REMARKS
KANSAS CTY INT LGT RAIN  62  59  90 S8        29.90F
KANSAS C DTWN  LGT RAIN  64  60  87 S3        29.90F
LEE`S SUMMIT   LGT RAIN  61  59  93 S7        29.92S
ST JOSEPH      LGT RAIN  63  60  90 S7        29.91R
CHILLICOTHE      N/A     68  60  75 SW7       29.92R
KIRKSVILLE     CLOUDY    73  61  65 SE14      29.89F

$$
MOZ066>068-077>081-088>096-101>105-182100-
...SOUTHWEST MISSOURI...

CITY           SKY/WX    TMP DP  RH WIND       PRES   REMARKS
SPRINGFIELD    CLOUDY    67  57  70 VRB3      29.92F
JOPLIN         CLOUDY    66  60  81 E3        29.89F

$$
MOZ032>034-039>042-045>050-055>058-069>072-182100-
...CENTRAL MISSOURI...

CITY           SKY/WX    TMP DP  RH WIND       PRES   REMARKS
COLUMBIA       PTSUNNY   74  57  55 S13       29.92S
JEFFERSON CITY PTSUNNY   76  57  51 S9        29.90F
ROLLA          LGT RAIN  74  54  49 S12G21    29.91F
SEDALIA        LGT RAIN  61  59  93 NW8       29.94F FOG
WHITEMAN AFB   LGT RAIN  61  60  96 E6        29.93F
WARRENSBURG    LGT RAIN  61  59  94 E5        29.94S
OSAGE BEACH    CLOUDY    63  57  82 W6        29.95S THUNDER

$$
MOZ051-052-059>065-182100-
...EAST CENTRAL MISSOURI...

CITY           SKY/WX    TMP DP  RH WIND       PRES   REMARKS
ST LOUIS INTL  CLOUDY    76  60  57 SE12      29.94F
SPIRIT OF STL  CLOUDY    76  60  57 E10       29.92F
ST CHARLES     CLOUDY    75  60  59 SE10      29.92F

$$
MOZ072>076-082>087-097>100-106>115-182100-
...SOUTH CENTRAL AND SOUTHEAST MISSOURI...

CITY           SKY/WX    TMP DP  RH WIND       PRES   REMARKS
CAPE GIRARDEAU PTSUNNY   76  60  57 SE9       29.90F
FARMINGTON     CLOUDY    75  59  57 S8        29.96F
POPLAR BLUFF   CLOUDY    76  60  57 SE8       29.89F
WEST PLAINS    CLOUDY    72  57  59 SE7       29.93F

$$


USA.gov is the U.S. government's official web portal to all federal, state and local government web resources and services.